TimeCST,TemperatureF,Dew PointF,Humidity,Sea Level PressureIn,VisibilityMPH,Wind Direction,Wind SpeedMPH,Gust SpeedMPH,PrecipitationIn,Events,Conditions,WindDirDegrees,DateUTC
12:54 AM,33.8,28.4,81,29.78,8.0,North,12.7,-,N/A,Snow,Light Snow,350,2013-02-28 06:54:00
1:54 AM,33.1,28.9,85,29.82,10.0,North,12.7,-,0.00,,Overcast,350,2013-02-28 07:54:00
2:42 AM,33.8,30.2,87,29.80,2.0,North,11.5,-,0.00,Snow,Light Snow,360,2013-02-28 08:42:00
2:54 AM,32.0,30.0,92,29.83,2.0,NNW,11.5,-,0.00,Snow,Light Snow,340,2013-02-28 08:54:00
3:10 AM,32.0,30.2,93,29.81,3.0,North,9.2,-,0.01,Snow,Light Snow,350,2013-02-28 09:10:00
3:54 AM,33.1,30.0,89,29.85,8.0,North,13.8,-,0.01,Snow,Light Snow,350,2013-02-28 09:54:00
4:54 AM,33.1,28.9,85,29.87,10.0,North,13.8,-,0.00,,Overcast,350,2013-02-28 10:54:00
5:26 AM,33.8,28.4,81,29.86,10.0,North,13.8,-,0.00,Snow,Light Snow,360,2013-02-28 11:26:00
5:54 AM,33.1,28.9,85,29.88,10.0,North,13.8,-,0.00,,Overcast,10,2013-02-28 11:54:00
6:54 AM,33.1,28.0,82,29.91,10.0,North,12.7,-,N/A,,Overcast,360,2013-02-28 12:54:00
7:54 AM,33.1,28.0,82,29.94,9.0,North,12.7,-,0.00,Snow,Light Snow,350,2013-02-28 13:54:00
8:54 AM,34.0,28.0,79,29.96,10.0,North,11.5,-,0.00,,Overcast,350,2013-02-28 14:54:00
9:54 AM,34.0,28.0,79,29.98,10.0,North,13.8,21.9,N/A,,Overcast,360,2013-02-28 15:54:00
10:54 AM,34.0,28.9,82,29.99,9.0,North,10.4,-,0.00,Snow,Light Drizzle,360,2013-02-28 16:54:00
11:54 AM,34.0,28.9,82,30.00,9.0,North,12.7,-,0.00,Snow,Light Snow,350,2013-02-28 17:54:00
12:54 PM,35.1,27.0,72,30.01,9.0,North,15.0,21.9,0.00,,Overcast,10,2013-02-28 18:54:00
1:54 PM,33.8,28.4,81,29.99,8.0,North,15.0,24.2,N/A,,Light Drizzle,360,2013-02-28 19:54:00
2:54 PM,34.0,24.1,67,30.04,10.0,NNE,13.8,20.7,0.00,,Overcast,20,2013-02-28 20:54:00
3:54 PM,34.0,25.0,70,30.05,10.0,NNE,16.1,-,N/A,,Overcast,20,2013-02-28 21:54:00
4:12 PM,33.8,24.8,70,30.03,10.0,North,11.5,20.7,N/A,,Overcast,10,2013-02-28 22:12:00
4:46 PM,33.8,24.8,70,30.03,10.0,North,12.7,-,N/A,,Overcast,10,2013-02-28 22:46:00
4:54 PM,34.0,25.0,70,30.06,10.0,NNE,11.5,-,N/A,,Overcast,20,2013-02-28 22:54:00
5:54 PM,33.1,25.0,72,30.08,10.0,NNE,13.8,-,N/A,,Overcast,30,2013-02-28 23:54:00
6:54 PM,32.0,25.0,75,30.10,10.0,NNE,11.5,-,N/A,,Overcast,20,2013-03-01 00:54:00
7:54 PM,30.9,24.1,76,30.11,10.0,NE,15.0,-,0.00,Snow,Light Snow,40,2013-03-01 01:54:00
8:54 PM,30.0,21.9,72,30.11,10.0,NNE,13.8,-,0.00,,Overcast,30,2013-03-01 02:54:00
9:41 PM,28.4,21.2,74,30.09,10.0,NE,16.1,23.0,N/A,,Overcast,50,2013-03-01 03:41:00
9:54 PM,28.9,19.9,69,30.12,10.0,NE,17.3,21.9,N/A,,Overcast,40,2013-03-01 03:54:00
10:02 PM,28.4,19.4,69,30.10,10.0,NE,17.3,-,N/A,,Overcast,40,2013-03-01 04:02:00
10:54 PM,28.0,19.9,72,30.13,10.0,NE,12.7,-,N/A,,Overcast,40,2013-03-01 04:54:00
11:54 PM,27.0,19.9,75,30.14,10.0,NNE,11.5,-,N/A,,Overcast,20,2013-03-01 05:54:00